Location: Unspecified
(0.0000°N, 0.0000°E)
Time: 18:57:34
(UTC+00:00)

SR - Pass Details

Date: 22 November 2019
Orbit: 573 x 882 km, 66.7° (Epoch: 08 December)

Event Time Altitude Azimuth Distance (km) Brightness Sun altitude
Rises 23:32:32 0° 358° (N) 3,371 - -69.5°
Reaches altitude 10° 23:35:20 10° 9° (N) 2,398 - -69.6°
Maximum altitude 23:40:06 30° 69° (ENE) 1,367 - -69.7°
Drops below altitude 10° 23:44:32 10° 129° (SE) 2,233 - -69.8°
Sets 23:47:03 0° 140° (SE) 3,102 - -69.8°
